Voltar ao catálogo

STARLINK-34389

AtivoComunicaçõesVLEO
NORAD 64351·PAYLOAD·🇺🇸 United States

Lançado Jun 13, 2025 de Vandenberg Space Force Base

Loading…

Próximas Passagens (próximas 24 horas)

TLE

AtualizadoSource: CelesTrak SupGP

Época: Sep 14, 2026, 21:39 UTC

1 64351C 25126H   26257.90256944  .00075782  00000+0  26366-2 0  2576
2 64351  69.9998 275.7921 0003316 266.9706 102.3206 15.29535822    10

Acompanhe STARLINK-34389 em tempo real com AllMySat

Download on the App Store